CW3999 Weather Reports


Display with metric or nautical units.
time (UTC)temp
F
wind
direction
speed
MPH
gust
MPH
rain 1hr
in
rain 24hr
in
rain mn
in
humidity
%
barometer
mb
20260831030710 67 350 3.0 6.0 0.00 0.00 0.00 44 1014.2
20260831030211 68 355 3.0 6.0 0.00 0.00 0.00 45 1014.1
20260831025712 68 355 4.0 9.0 0.00 0.00 0.00 46 1014.1
20260831025210 68 355 5.0 9.0 0.00 0.00 0.00 46 1014.1
20260831024710 68 13 6.0 10.0 0.00 0.00 0.00 46 1014.2
20260831024211 69 0 7.0 11.0 0.00 0.00 0.00 46 1014.2
20260831023711 69 337 8.0 12.0 0.00 0.00 0.00 46 1014.2
20260831023210 69 355 7.0 15.0 0.00 0.00 0.00 46 1014.3
20260831022210 69 342 7.0 12.0 0.00 0.00 0.00 46 1014.3
20260831021712 70 340 6.0 12.0 0.00 0.00 0.00 46 1014.3
20260831021211 70 332 6.0 11.0 0.00 0.00 0.00 46 1014.3
20260831020712 70 329 6.0 11.0 0.00 0.00 0.00 46 1014.4
20260831020211 70 345 6.0 11.0 0.00 0.00 0.00 46 1014.3
20260831015710 71 337 5.0 11.0 0.00 0.00 0.00 45 1014.3
20260831015211 71 336 6.0 13.0 0.00 0.00 0.00 45 1014.4
20260831014711 71 351 6.0 13.0 0.00 0.00 0.00 45 1014.3
20260831014211 71 28 5.0 11.0 0.00 0.00 0.00 45 1014.3
20260831013712 71 355 6.0 11.0 0.00 0.00 0.00 45 1014.4
20260831013203 72 34 4.0 11.0 0.00 0.00 0.00 45 1014.4
20260831012202 72 5 6.0 14.0 0.00 0.00 0.00 45 1014.4
20260831011702 72 53 6.0 14.0 0.00 0.00 0.00 45 1014.5
20260831011203 72 342 5.0 12.0 0.00 0.00 0.00 45 1014.5
20260831010703 72 5 5.0 13.0 0.00 0.00 0.00 45 1014.6
20260831010203 72 53 4.0 13.0 0.00 0.00 0.00 45 1014.6
20260831005701 72 340 5.0 11.0 0.00 0.00 0.00 45 1014.7
20260831005202 72 51 6.0 11.0 0.00 0.00 0.00 45 1014.7
20260831004701 73 41 4.0 11.0 0.00 0.00 0.00 45 1014.8
20260831004201 73 345 3.0 9.0 0.00 0.00 0.00 45 1014.8
20260831003700 73 347 4.0 10.0 0.00 0.00 0.00 45 1014.8
20260831002203 73 22 5.0 12.0 0.00 0.00 0.00 45 1014.9
20260831001702 73 21 6.0 12.0 0.00 0.00 0.00 44 1014.9
20260831000702 73 39 4.0 12.0 0.00 0.00 0.00 45 1014.9
20260831000204 73 9 3.0 11.0 0.00 0.00 0.00 45 1014.9
20260830235702 73 113 3.0 11.0 0.00 0.00 0.00 45 1015.0
20260830235202 73 42 2.0 11.0 0.00 0.00 0.00 44 1015.0
20260830234703 73 32 0.0 9.0 0.00 0.00 0.00 44 1015.1
20260830234204 73 57 1.0 9.0 0.00 0.00 0.00 44 1015.1
20260830233703 73 119 2.0 9.0 0.00 0.00 0.00 44 1015.2
20260830233201 73 10 2.0 11.0 0.00 0.00 0.00 44 1015.3
20260830232655 74 25 1.0 11.0 0.00 0.00 0.00 44 1015.4
20260830231655 74 355 3.0 10.0 0.00 0.00 0.00 43 1015.4
20260830230655 74 346 0.0 14.0 0.00 0.00 0.00 43 1015.5
20260830230155 74 13 0.0 2.0 0.00 0.00 0.00 43 1015.7
20260830225656 73 10 1.0 5.0 0.00 0.00 0.00 43 1015.8
20260830224631 74 36 1.0 6.0 0.00 0.00 0.00 43 1016.0
20260830224130 73 36 3.0 13.0 0.00 0.00 0.00 43 1016.1
20260830223630 74 22 2.0 13.0 0.00 0.00 0.00 42 1016.2
20260830222629 75 127 0.0 1.0 0.00 0.00 0.00 42 1016.3
20260830222132 74 330 0.0 6.0 0.00 0.00 0.00 42 1016.4
20260830221632 73 330 3.0 9.0 0.00 0.00 0.00 43 1016.6
20260830221129 72 355 4.0 9.0 0.00 0.00 0.00 43 1016.7
20260830220630 73 60 2.0 8.0 0.00 0.00 0.00 42 1016.8
20260830220131 73 0 1.0 8.0 0.00 0.00 0.00 42 1016.8
20260830215630 73 30 2.0 10.0 0.00 0.00 0.00 43 1016.9
20260830215130 72 32 2.0 10.0 0.00 0.00 0.00 43 1016.9
20260830214629 72 11 0.0 7.0 0.00 0.00 0.00 42 1017.0
20260830213631 72 148 0.0 4.0 0.00 0.00 0.00 42 1017.1
20260830213130 72 82 0.0 4.0 0.00 0.00 0.00 43 1017.1
20260830212630 72 46 1.0 5.0 0.00 0.00 0.00 42 1017.2
20260830212130 72 185 2.0 5.0 0.00 0.00 0.00 42 1017.2
20260830211630 71 185 1.0 5.0 0.00 0.00 0.00 42 1017.4
20260830211130 70 119 0.0 5.0 0.00 0.00 0.00 43 1017.4
20260830210630 71 65 0.0 0.0 0.00 0.00 0.00 42 1017.5
20260830210129 71 57 0.0 0.0 0.00 0.00 0.00 43 1017.5
20260830205632 70 117 0.0 0.0 0.00 0.00 0.00 43 1017.6
20260830205132 70 117 0.0 3.0 0.00 0.00 0.00 43 1017.6
20260830204631 71 69 0.0 3.0 0.00 0.00 0.00 43 1017.6
20260830204132 72 37 0.0 0.0 0.00 0.00 0.00 41 1017.6
20260830203630 72 80 0.0 0.0 0.00 0.00 0.00 41 1017.8
20260830203131 72 101 0.0 0.0 0.00 0.00 0.00 41 1017.8
20260830201607 69 347 1.0 8.0 0.00 0.00 0.00 42 1018.1
20260830201108 69 345 1.0 8.0 0.00 0.00 0.00 42 1018.0
20260830200608 70 342 0.0 4.0 0.00 0.00 0.00 41 1018.1
20260830200108 69 346 0.0 4.0 0.00 0.00 0.00 42 1018.2
20260830194603 70 132 0.0 0.0 0.00 0.00 0.00 40 1018.2
20260830194104 69 132 0.0 3.0 0.00 0.00 0.00 40 1018.2
20260830193603 68 43 0.0 3.0 0.00 0.00 0.00 40 1018.3
20260830193103 68 318 0.0 2.0 0.00 0.00 0.00 39 1018.4
20260830192603 68 342 0.0 0.0 0.00 0.00 0.00 39 1018.5
20260830192102 67 342 0.0 0.0 0.00 0.00 0.00 39 1018.5
20260830191602 67 345 1.0 6.0 0.00 0.00 0.00 40 1018.6
20260830191103 68 345 2.0 8.0 0.00 0.00 0.00 39 1018.7
20260830190104 68 327 0.0 0.0 0.00 0.00 0.00 36 1018.8
20260830185603 67 327 0.0 0.0 0.00 0.00 0.00 35 1018.8
20260830185104 65 327 0.0 0.0 0.00 0.00 0.00 34 1018.9
20260830184558 65 327 0.0 0.0 0.00 0.00 0.00 36 1018.9
20260830184100 65 327 0.0 0.0 0.00 0.00 0.00 36 1019.0
20260830183600 65 327 1.0 6.0 0.00 0.00 0.00 35 1019.1
20260830183100 65 327 1.0 6.0 0.00 0.00 0.00 34 1019.1
20260830182552 65 323 0.0 9.0 0.00 0.00 0.00 32 1019.0
20260830182047 64 323 0.0 9.0 0.00 0.00 0.00 32 1019.0
20260830181548 64 317 0.0 0.0 0.00 0.00 0.00 32 1019.0
20260830181048 64 317 0.0 0.0 0.00 0.00 0.00 32 1019.1
20260830180548 65 317 0.0 0.0 0.00 0.00 0.00 32 1019.1
20260830180035 65 317 0.0 4.0 0.00 0.00 0.00 32 1019.1
20260830175531 65 317 2.0 10.0 0.00 0.00 0.00 31 1019.1
20260830175030 65 317 2.0 10.0 0.00 0.00 0.00 31 1019.1
20260830173531 64 325 0.0 5.0 0.00 0.00 0.00 28 1019.0
20260830173030 65 324 0.0 3.0 0.00 0.00 0.00 26 1019.0
20260830172529 65 324 0.0 0.0 0.00 0.00 0.00 21 1019.1
20260830172029 65 323 0.0 0.0 0.00 0.00 0.00 16 1019.1
20260830171531 64 323 0.0 0.0 0.00 0.00 0.00 9 1019.1
20260830170030 62 323 0.0 0.0 0.00 0.00 0.00 100 1019.2
20260830165531 61 323 0.0 0.0 0.00 0.00 0.00 100 1019.2
20260830165031 60 323 0.0 0.0 0.00 0.00 0.00 100 1019.3
20260830164530 60 323 0.0 0.0 0.00 0.00 0.00 100 1019.3
20260830164030 59 323 0.0 0.0 0.00 0.00 0.00 100 1019.2
20260830163528 58 323 0.0 0.0 0.00 0.00 0.00 100 1019.2
20260830163029 58 323 0.0 0.0 0.00 0.00 0.00 100 1019.2
20260830162531 57 323 0.0 0.0 0.00 0.00 0.00 100 1019.3
20260830162030 57 323 0.0 0.0 0.00 0.00 0.00 100 1019.4
20260830161530 56 323 0.0 0.0 0.00 0.00 0.00 100 1019.4
20260830161030 56 323 0.0 0.0 0.00 0.00 0.00 100 1019.4
20260830160531 55 323 0.0 0.0 0.00 0.00 0.00 100 1019.5
20260830155530 54 323 0.0 0.0 0.00 0.00 0.00 100 1019.6
20260830155030 53 323 0.0 0.0 0.00 0.00 0.00 100 1019.6
20260830154029 53 323 0.0 0.0 0.00 0.00 0.00 100 1019.6
20260830153529 53 323 0.0 0.0 0.00 0.00 0.00 100 1019.6
20260830153028 52 323 0.0 0.0 0.00 0.00 0.00 100 1019.6
20260830152530 51 323 0.0 0.0 0.00 0.00 0.00 100 1019.6
20260830152031 51 323 0.0 0.0 0.00 0.00 0.00 100 1019.6
20260830151520 50 323 0.0 0.0 0.00 0.00 0.00 100 1019.6
20260830151012 50 323 0.0 0.0 0.00 0.00 0.00 100 1019.6
20260830150512 50 323 0.0 0.0 0.00 0.00 0.00 100 1019.7
20260830150012 50 323 0.0 0.0 0.00 0.00 0.00 100 1019.7
20260830145511 49 323 0.0 0.0 0.00 0.00 0.00 100 1019.8
20260830145008 49 323 0.0 0.0 0.00 0.00 0.00 100 1019.7
20260830144504 49 323 0.0 0.0 0.00 0.00 0.00 100 1019.7
20260830144003 49 323 0.0 0.0 0.00 0.00 0.00 100 1019.7
20260830143504 48 323 0.0 0.0 0.00 0.00 0.00 100 1019.7
20260830143004 48 323 0.0 0.0 0.00 0.00 0.00 100 1019.7
20260830142502 48 327 0.0 0.0 0.00 0.00 0.00 100 1019.7
20260830142006 48 330 0.0 0.0 0.00 0.00 0.00 100 1019.7
20260830141502 48 330 0.0 0.0 0.00 0.00 0.00 100 1019.7
20260830141002 48 330 0.0 0.0 0.00 0.00 0.00 100 1019.7
20260830140502 47 330 0.0 0.0 0.00 0.00 0.00 100 1019.6
20260830135504 47 330 0.0 0.0 0.00 0.00 0.00 100 1019.5
20260830135003 47 330 0.0 0.0 0.00 0.00 0.00 100 1019.5
20260830134502 47 330 0.0 0.0 0.00 0.00 0.00 100 1019.5
20260830134000 47 330 0.0 0.0 0.00 0.00 0.00 100 1019.5
20260830133501 47 330 0.0 0.0 0.00 0.00 0.00 100 1019.4
20260830132002 47 327 0.0 0.0 0.00 0.00 0.00 100 1019.5
20260830131504 47 327 0.0 0.0 0.00 0.00 0.00 100 1019.5
20260830131004 47 327 0.0 0.0 0.00 0.00 0.00 100 1019.4
20260830130004 47 327 0.0 0.0 0.00 0.00 0.00 100 1019.3
20260830125504 47 327 0.0 0.0 0.00 0.00 0.00 100 1019.3
20260830125003 47 327 0.0 0.0 0.00 0.00 0.00 100 1019.3
20260830124504 47 327 0.0 0.0 0.00 0.00 0.00 100 1019.3
20260830123501 47 327 0.0 0.0 0.00 0.00 0.00 100 1019.3
20260830123002 47 327 0.0 0.0 0.00 0.00 0.00 100 1019.3
20260830122003 47 327 0.0 0.0 0.00 0.00 0.00 100 1019.1
20260830121002 47 327 0.0 0.0 0.00 0.00 0.00 100 1019.0
20260830120504 47 327 0.0 0.0 0.00 0.00 0.00 100 1019.0
20260830120004 47 327 0.0 0.0 0.00 0.00 0.00 100 1019.0
20260830115448 47 327 0.0 0.0 0.00 0.00 0.00 100 1019.0
20260830114931 47 327 0.0 0.0 0.00 0.00 0.00 100 1019.1
20260830113931 47 327 0.0 0.0 0.00 0.00 0.00 100 1019.2
20260830113428 47 327 0.0 0.0 0.00 0.00 0.00 100 1019.1
20260830112930 48 327 0.0 0.0 0.00 0.00 0.00 100 1019.1
20260830112431 48 327 0.0 0.0 0.00 0.00 0.00 100 1019.0
20260830111929 48 327 0.0 0.0 0.00 0.00 0.00 100 1019.1
20260830111430 48 327 0.0 0.0 0.00 0.00 0.00 100 1019.0
20260830110930 48 327 0.0 0.0 0.00 0.00 0.00 100 1019.0
20260830110432 48 327 0.0 0.0 0.00 0.00 0.00 100 1019.1
20260830105930 49 327 0.0 0.0 0.00 0.00 0.00 100 1019.0
20260830105431 49 327 0.0 0.0 0.00 0.00 0.00 100 1019.0
20260830104917 49 327 0.0 0.0 0.00 0.00 0.00 100 1019.0
20260830104402 49 327 0.0 0.0 0.00 0.00 0.00 100 1019.0
20260830103902 49 327 0.0 0.0 0.00 0.00 0.00 100 1019.0
20260830103403 49 327 0.0 0.0 0.00 0.00 0.00 100 1019.0
20260830102400 49 327 0.0 0.0 0.00 0.00 0.00 100 1018.9
20260830101402 50 327 0.0 0.0 0.00 0.00 0.00 100 1018.9
20260830100902 50 327 0.0 0.0 0.00 0.00 0.00 100 1018.9
20260830100402 50 327 0.0 0.0 0.00 0.00 0.00 100 1018.9
20260830095904 51 327 0.0 0.0 0.00 0.00 0.00 100 1019.0
20260830095404 51 327 0.0 0.0 0.00 0.00 0.00 100 1019.0
20260830094903 51 327 0.0 0.0 0.00 0.00 0.00 100 1019.0
20260830094403 51 327 0.0 0.0 0.00 0.00 0.00 100 1019.0
20260830093903 51 327 0.0 0.0 0.00 0.00 0.00 100 1018.9
20260830093404 52 327 0.0 0.0 0.00 0.00 0.00 100 1018.8
20260830092903 52 327 0.0 0.0 0.00 0.00 0.00 100 1018.8
20260830092404 53 327 0.0 0.0 0.00 0.00 0.00 100 1019.0
20260830091903 53 327 0.0 0.0 0.00 0.00 0.00 100 1018.9
20260830090902 53 327 0.0 0.0 0.00 0.00 0.00 100 1018.9
20260830085902 54 327 0.0 0.0 0.00 0.00 0.00 100 1018.9
20260830085404 54 327 0.0 0.0 0.00 0.00 0.00 100 1018.8
20260830083840 55 327 0.0 0.0 0.00 0.00 0.00 100 1019.0
20260830083332 55 327 0.0 0.0 0.00 0.00 0.00 100 1019.0
20260830082831 55 327 0.0 0.0 0.00 0.00 0.00 100 1019.1
20260830082332 55 327 0.0 0.0 0.00 0.00 0.00 100 1019.1
20260830081831 55 327 0.0 0.0 0.00 0.00 0.00 100 1019.1
20260830081330 55 327 0.0 0.0 0.00 0.00 0.00 100 1019.0
20260830080829 55 327 0.0 0.0 0.00 0.00 0.00 100 1019.0
20260830080329 55 327 0.0 0.0 0.00 0.00 0.00 100 1019.0
20260830075830 56 327 0.0 0.0 0.00 0.00 0.00 100 1018.9
20260830074831 56 327 0.0 0.0 0.00 0.00 0.00 100 1018.9
20260830073832 56 327 0.0 0.0 0.00 0.00 0.00 100 1018.9
20260830073331 56 327 0.0 0.0 0.00 0.00 0.00 100 1018.9
20260830072830 56 327 0.0 0.0 0.00 0.00 0.00 100 1019.0
20260830071831 56 327 0.0 0.0 0.00 0.00 0.00 100 1019.0
20260830071330 56 327 0.0 0.0 0.00 0.00 0.00 100 1019.0
20260830070829 56 327 0.0 0.0 0.00 0.00 0.00 100 1018.9
20260830065831 56 327 0.0 0.0 0.00 0.00 0.00 100 1018.9
20260830065332 56 327 0.0 0.0 0.00 0.00 0.00 100 1018.9
20260830064831 56 327 0.0 0.0 0.00 0.00 0.00 100 1018.9
20260830063830 56 327 0.0 0.0 0.00 0.00 0.00 100 1019.0
20260830063330 56 327 0.0 0.0 0.00 0.00 0.00 100 1018.9
20260830062830 56 327 0.0 0.0 0.00 0.00 0.00 100 1018.9
20260830062330 57 327 0.0 0.0 0.00 0.00 0.00 100 1018.8
20260830061830 57 327 0.0 0.0 0.00 0.00 0.00 100 1018.8
20260830061329 57 327 0.0 0.0 0.00 0.00 0.00 100 1018.8
20260830060830 57 327 0.0 0.0 0.00 0.00 0.00 1 1018.8
20260830060316 57 327 0.0 0.0 0.00 0.00 0.00 3 1018.8
20260830055816 57 327 0.0 0.0 0.00 0.00 0.00 5 1018.8
20260830055308 58 327 0.0 0.0 0.00 0.00 0.00 5 1018.8
20260830054808 58 327 0.0 0.0 0.00 0.00 0.00 5 1018.9
20260830053803 58 327 0.0 0.0 0.00 0.00 0.00 11 1018.8
20260830053304 58 327 0.0 0.0 0.00 0.00 0.00 12 1018.8
20260830052803 58 327 0.0 0.0 0.00 0.00 0.00 14 1018.8
20260830052307 58 327 0.0 0.0 0.00 0.00 0.00 14 1018.8
20260830051803 58 327 0.0 0.0 0.00 0.00 0.00 15 1018.8
20260830051304 58 327 0.0 0.0 0.00 0.00 0.00 15 1018.7
20260830050804 58 327 0.0 0.0 0.00 0.00 0.00 17 1018.7
20260830050303 59 327 0.0 0.0 0.00 0.00 0.00 20 1018.7
20260830045305 59 327 0.0 0.0 0.00 0.00 0.00 25 1018.7
20260830044803 59 327 0.0 0.0 0.00 0.00 0.00 26 1018.7
20260830043803 59 327 0.0 2.0 0.00 0.00 0.00 30 1018.6
20260830043303 60 327 1.0 3.0 0.00 0.00 0.00 32 1018.6
20260830042804 60 327 2.0 5.0 0.00 0.00 0.00 33 1018.5
20260830042306 60 327 2.0 5.0 0.00 0.00 0.00 35 1018.6
20260830041801 60 327 3.0 6.0 0.00 0.00 0.00 36 1018.5
20260830041302 60 327 3.0 6.0 0.00 0.00 0.00 38 1018.4
20260830040802 60 327 3.0 6.0 0.00 0.00 0.00 40 1018.4
20260830040301 61 327 3.0 6.0 0.00 0.00 0.00 42 1018.4
20260830035300 61 327 2.0 8.0 0.00 0.00 0.00 43 1018.3
20260830034803 62 327 2.0 8.0 0.00 0.00 0.00 44 1018.3
20260830034301 62 327 2.0 5.0 0.00 0.00 0.00 45 1018.2
20260830033803 62 327 2.0 9.0 0.00 0.00 0.00 45 1018.1
20260830033301 62 327 3.0 9.0 0.00 0.00 0.00 46 1018.1
20260830032801 62 328 5.0 10.0 0.00 0.00 0.00 46 1018.0
20260830032306 62 329 6.0 10.0 0.00 0.00 0.00 47 1018.0
20260830031803 63 319 5.0 10.0 0.00 0.00 0.00 47 1017.9
20260830031302 63 333 4.0 11.0 0.00 0.00 0.00 47 1017.8